Change the Weather History Date:

Wednesday, March 5, 2014

  Actual Average Record
Temperature  
Mean Temperature 0 °F -  
Max Temperature 19 °F 30 °F 51 °F (1987)
Min Temperature -18 °F 6 °F -29 °F (2015)
Degree Days  
Heating Degree Days 64    
Moisture  
Dew Point -7 °F    
Average Humidity 66    
Maximum Humidity 79    
Minimum Humidity 47    
Precipitation  
Precipitation 0.00 in - - ()
Sea Level Pressure  
Sea Level Pressure 30.47 in    
Wind  
Wind Speed 6 mph (SE)    
Max Wind Speed 16 mph    
Max Gust Speed -    
Visibility 10 miles    
Events      
Averages and records for this station are not official NWS values.
T = Trace of Precipitation, MM = Missing Value Source: NWS Daily Summary

Daily Weather History Graph

Daily Weather History Graph

Search for Another Location

Airport or City:

Trip Planner

Search our weather history database for the weather conditions in past years. The results will help you decide how hot, cold, wet, or windy it might be!

Date:

Astronomy

Mar. 05, 2014 Rise Set
Actual Time 6:43 AM CST 6:02 PM CST
Civil Twilight 6:13 AM CST 6:33 PM CST
Nautical Twilight 5:37 AM CST 7:08 PM CST
Astronomical Twilight 5:02 AM CST 7:44 PM CST
Moon 8:49 AM CST (3/5) 11:34 PM CST (3/5)
Length of Visible Light 12h 19m
Length of Day
11h 18m
Waxing Crescent, 23% of the Moon is Illuminated
Mar 5
Waxing Crescent
Mar 8
First Quarter
Mar 16
Full
Mar 23
Last Quarter
Mar 30
New

Hourly Weather History & Observations

Time (CST) Temp. Windchill Dew Point Humidity Pressure Visibility Wind Dir Wind Speed Gust Speed Precip Events Conditions
12:53 AM -15.0 °F -25.0 °F -20.9 °F 75% 30.45 in 10.0 mi NW 3.5 mph - N/A   Clear
1:53 AM -17.0 °F - -22.0 °F 78% 30.46 in 10.0 mi Calm Calm - N/A   Clear
2:53 AM -13.0 °F - -20.0 °F 71% 30.46 in 10.0 mi Calm Calm - N/A   Clear
3:53 AM -16.1 °F - -20.9 °F 79% 30.48 in 10.0 mi Calm Calm - N/A   Clear
4:53 AM -18.0 °F - -24.0 °F 74% 30.51 in 10.0 mi Calm Calm - N/A   Clear
5:53 AM -18.0 °F -28.5 °F -24.0 °F 74% 30.52 in 10.0 mi WNW 3.5 mph - N/A   Clear
6:53 AM -18.9 °F - -24.0 °F 78% 30.56 in 10.0 mi Calm Calm - N/A   Clear
7:53 AM -8.0 °F - -13.0 °F 79% 30.57 in 10.0 mi Calm Calm - N/A   Partly Cloudy
8:53 AM 5.0 °F -4.1 °F -0.9 °F 76% 30.58 in 10.0 mi ESE 4.6 mph - N/A   Clear
9:53 AM 10.9 °F -5.4 °F 1.9 °F 67% 30.56 in 10.0 mi SE 15.0 mph - N/A   Clear
10:53 AM 12.9 °F -1.6 °F 1.0 °F 59% 30.57 in 10.0 mi SE 12.7 mph - N/A   Overcast
11:53 AM 15.1 °F 1.1 °F 1.9 °F 56% 30.55 in 10.0 mi SE 12.7 mph - N/A   Overcast
12:53 PM 17.1 °F 5.0 °F 1.9 °F 52% 30.53 in 10.0 mi SE 10.4 mph - N/A   Overcast
1:53 PM 18.0 °F 4.8 °F 1.9 °F 50% 30.50 in 10.0 mi ESE 12.7 mph - N/A   Overcast
2:53 PM 19.0 °F 4.5 °F 1.9 °F 47% 30.46 in 10.0 mi SSE 16.1 mph - N/A   Overcast
3:53 PM 19.0 °F 5.0 °F 3.0 °F 50% 30.45 in 10.0 mi SE 15.0 mph - N/A   Overcast
4:53 PM 19.0 °F 6.1 °F 1.9 °F 47% 30.43 in 10.0 mi SSE 12.7 mph - N/A   Partly Cloudy
5:53 PM 18.0 °F 6.1 °F 1.0 °F 48% 30.42 in 10.0 mi SSE 10.4 mph - N/A   Clear
6:53 PM 12.0 °F -3.4 °F -0.0 °F 59% 30.41 in 10.0 mi SE 13.8 mph - N/A   Clear
7:53 PM 8.1 °F -6.2 °F -2.0 °F 64% 30.39 in 10.0 mi SSE 10.4 mph - N/A   Clear
8:53 PM 5.0 °F -11.6 °F -2.0 °F 73% 30.38 in 10.0 mi SSE 12.7 mph - N/A   Clear
9:53 PM 5.0 °F -9.1 °F -2.0 °F 73% 30.36 in 10.0 mi SSE 9.2 mph - N/A   Clear
10:53 PM 3.9 °F -8.2 °F -2.0 °F 76% 30.33 in 10.0 mi SE 6.9 mph - N/A   Clear
11:53 PM 5.0 °F -6.9 °F -0.9 °F 76% 30.32 in 10.0 mi SSE 6.9 mph - N/A   Mostly Cloudy